Torna al catalogo

STARLINK-32513

AttivoComunicazioniVLEO
NORAD 61964·PAYLOAD·🇺🇸 United States

Lanciato Nov 14, 2024 da Cape Canaveral Space Force Station

Loading…

Prossimi Passaggi (prossime 24 ore)

TLE

AggiornatoSource: CelesTrak SupGP

Epoca: Sep 15, 2026, 03:37 UTC

1 61964C 24210F   26258.15118056  .00009489  00000+0  34369-3 0  2580
2 61964  43.0021 175.3608 0001306 269.3305  72.1598 15.27573247    12

Traccia STARLINK-32513 in tempo reale con AllMySat

Download on the App Store